This is the latest recevied weather packets stored in our database for station/object N4CRH-13. If no packets are shown the sender has not sent any weather packets the latest 10 day(s).
| Time | Temp. | Humidity | Pressure | Rain* | Wind** | Luminosity | Snow |
|---|---|---|---|---|---|---|---|
| 1777696665 | 0.56° C | 61% | 1299.8 hPa | 0 mm | - | 0 W/m² | - |
| 1777696362 | 0° C | 65% | 1299.9 hPa | 0 mm | - | 0 W/m² | - |
| 1777696061 | 0° C | 61% | 1299.9 hPa | 0 mm | - | 0 W/m² | - |
| 1777695759 | 0.56° C | 67% | 1300.1 hPa | 0 mm | - | 0 W/m² | - |
| 1777695457 | 0° C | 62% | 1300.1 hPa | 0 mm | - | 0 W/m² | - |
| 1777695154 | 0.56° C | 63% | 1299.7 hPa | 0 mm | - | 0 W/m² | - |
| 1777694851 | 1.11° C | 63% | 1299.7 hPa | 0 mm | - | 0 W/m² | - |
| 1777694547 | 0.56° C | 56% | 1299.6 hPa | 0 mm | - | 0 W/m² | - |
| 1777694243 | 0.56° C | 61% | 1299.8 hPa | 0 mm | - | 0 W/m² | - |
| 1777693941 | 0.56° C | 65% | 1299.6 hPa | 0 mm | - | 0 W/m² | - |
| 1777693638 | 0.56° C | 68% | 1299.8 hPa | 0 mm | - | 0 W/m² | - |
| 1777693336 | 0.56° C | 65% | 1299.8 hPa | 0 mm | - | 0 W/m² | - |
| 1777693034 | 1.11° C | 66% | 1299.6 hPa | 0 mm | - | 0 W/m² | - |
| 1777692731 | 1.67° C | 58% | 1299.5 hPa | 0 mm | - | 0 W/m² | - |
| 1777692428 | 1.11° C | 65% | 1299.6 hPa | 0 mm | - | 0 W/m² | - |
| 1777692123 | 1.67° C | 63% | 1299.3 hPa | 0 mm | - | 0 W/m² | - |
| 1777691822 | 1.67° C | 63% | 1299.2 hPa | 0 mm | - | 0 W/m² | - |
| 1777691519 | 1.11° C | 61% | 1299.2 hPa | 0 mm | - | 0 W/m² | - |
| 1777691218 | 1.67° C | 64% | 1299.2 hPa | 0 mm | - | 0 W/m² | - |
| 1777690916 | 1.67° C | 59% | 1299.3 hPa | 0 mm | - | 0 W/m² | - |
| 1777690612 | 2.22° C | 62% | 1299 hPa | 0 mm | - | 0 W/m² | - |
| 1777690310 | 2.22° C | 55% | 1299.2 hPa | 0 mm | - | 0 W/m² | - |
| 1777690008 | 1.67° C | 57% | 1299.1 hPa | 0 mm | - | 0 W/m² | - |
| 1777689706 | 1.67° C | 60% | 1298.6 hPa | 0 mm | - | 0 W/m² | - |
| 1777689404 | 1.67° C | 60% | 1298.6 hPa | 0 mm | - | 0 W/m² | - |
* Rain latest hour (hover to see other rain measurements)
** Current wind speed in m/s (hover to see current wind gust speed)